This demonstration page uses our WeatherBlox Daily Observations layout. Learn more.

41.86663, -103.66717

Hourly Observations for December 9, 2019

Temp ( °F °C ) Dew Point ( °F °C ) Humidity (%) Winds ( mph kmh ) Pressure ( in mb ) Visibility ( mi km ) Precip ( " mm )
12:08 am 00:08 Windy with Snow Likely 26 -3.3 23 -5 88 88 NW 21 33 30.04 1017 1.5 2.41401 0.001 0.001
12:20 am 00:20 Cloudy with Light Snow 27 -3 21 -6 80 80 NW 17 28 30.04 1017 3 4.82802 0 0
12:34 am 00:34 Windy with Snow Likely 25 -3.9 21 -6.1 85 85 NW 21 33 30.06 1018 6 9.65604 0.001 0.001
12:53 am 00:53 Windy with Snow Likely 25 -3.9 20 -6.7 81 81 NW 20 31 29.91 1013 8 12.87472 0.001 0.001
1:53 am 01:53 Cloudy 24 -4.4 18 -7.8 77 77 NW 22 35 29.91 1013 10 16.0934 0.001 0.001
2:53 am 02:53 Mostly Cloudy 23 -5 17 -8.3 78 78 NW 13 20 29.95 1014 10 16.0934 0 0
3:53 am 03:53 Mostly Cloudy 21 -6.1 14 -10 74 74 NW 14 22 29.98 1015 10 16.0934 0 0
4:53 am 04:53 Cloudy 21 -6.1 14 -10 74 74 NW 12 19 29.99 1016 10 16.0934 0 0
5:53 am 05:53 Clear 19 -7.2 13 -10.6 77 77 WNW 8 13 30.01 1016 10 16.0934 0 0
6:53 am 06:53 Clear 19 -7.2 12 -11.1 74 74 WNW 12 19 30.03 1017 10 16.0934 0 0
7:53 am 07:53 Cloudy 20 -6.7 12 -11.1 71 71 WNW 7 11 30.05 1018 10 16.0934 0 0
8:53 am 08:53 Sunny 23 -5 14 -10 68 68 WNW 8 13 30.06 1018 10 16.0934 0 0
9:53 am 09:53 Sunny 27 -2.8 16 -8.9 63 63 W 9 15 30.07 1018 10 16.0934 0 0
10:53 am 10:53 Mostly Sunny 32 0 18 -7.8 56 56 WNW 15 24 30.05 1018 10 16.0934 0 0
11:53 am 11:53 Cloudy 35 1.7 15 -9.4 44 44 NW 21 33 30.03 1017 10 16.0934 0 0
12:53 pm 12:53 Sunny 35 1.7 15 -9.4 44 44 NW 17 28 30.03 1017 10 16.0934 0 0
1:53 pm 13:53 Mostly Sunny 36 2.2 16 -8.9 44 44 WNW 17 28 30.02 1017 10 16.0934 0 0
2:53 pm 14:53 Sunny 35 1.7 18 -7.8 50 50 WNW 9 15 30.03 1017 10 16.0934 0 0
3:53 pm 15:53 Sunny 34 1.1 18 -7.8 52 52 NW 14 22 30.04 1017 10 16.0934 0 0
4:53 pm 16:53 Clear 30 -1.1 18 -7.8 61 61 WNW 8 13 30.07 1018 10 16.0934 0 0
5:53 pm 17:53 Mostly Cloudy 28 -2.2 19 -7.2 69 69 W 5 7 30.09 1019 10 16.0934 0 0
6:53 pm 18:53 Clear 26 -3.3 19 -7.2 75 75 NW 7 11 30.11 1020 10 16.0934 0 0
7:53 pm 19:53 Mostly Cloudy 25 -3.9 19 -7.2 78 78 WNW 6 9 30.12 1020 10 16.0934 0 0
8:53 pm 20:53 Clear 24 -4.4 19 -7.2 81 81 WNW 6 9 30.13 1020 10 16.0934 0 0
9:53 pm 21:53 Clear 22 -5.6 18 -7.8 85 85 WNW 7 11 30.12 1020 10 16.0934 0 0
10:53 pm 22:53 Clear 23 -5 18 -7.8 81 81 W 8 13 30.11 1020 10 16.0934 0 0
11:53 pm 23:53 Mostly Cloudy 27 -2.8 19 -7.2 72 72 NNW 10 17 30.11 1020 10 16.0934 0 0

Powered by AerisWeather